FW8040 Weather Reports


Display with metric or nautical units.
time (UTC)temp
F
wind
direction
speed
MPH
gust
MPH
rain 1hr
in
rain 24hr
in
rain mn
in
humidity
%
barometer
mb
20260504190542 77 319 0.0 1.0 0.00 0.00 0.00 35 1013.6
20260504190053 77 221 0.0 2.0 0.00 0.00 0.00 35 1013.7
20260504185543 77 237 0.0 2.0 0.00 0.00 0.00 36 1013.8
20260504185042 77 326 0.0 2.0 0.00 0.00 0.00 35 1013.7
20260504184547 77 233 0.0 2.0 0.00 0.00 0.00 36 1014.0
20260504184042 76 331 0.0 2.0 0.00 0.00 0.00 37 1014.1
20260504183544 75 0 0.0 2.0 0.00 0.00 0.00 36 1014.0
20260504183051 75 229 0.0 1.0 0.00 0.00 0.00 37 1014.0
20260504182540 75 0 0.0 2.0 0.00 0.00 0.00 36 1014.2
20260504182041 75 232 0.0 2.0 0.00 0.00 0.00 37 1014.2
20260504181548 75 224 0.0 1.0 0.00 0.00 0.00 38 1014.3
20260504181044 75 334 0.0 2.0 0.00 0.00 0.00 36 1014.2
20260504180543 74 316 0.0 2.0 0.00 0.00 0.00 37 1014.3
20260504180105 74 228 0.0 2.0 0.00 0.00 0.00 37 1014.2
20260504175542 74 224 0.0 2.0 0.00 0.00 0.00 38 1014.3
20260504175042 74 235 0.0 2.0 0.00 0.00 0.00 38 1014.4
20260504174548 74 0 0.0 2.0 0.00 0.00 0.00 38 1014.4
20260504174042 74 206 0.0 1.0 0.00 0.00 0.00 39 1014.4
20260504173542 74 236 0.0 1.0 0.00 0.00 0.00 39 1014.5
20260504173059 74 233 0.0 1.0 0.00 0.00 0.00 40 1014.6
20260504172616 73 0 0.0 2.0 0.00 0.00 0.00 39 1014.7
20260504172043 73 260 0.0 2.0 0.00 0.00 0.00 38 1014.9
20260504171545 73 234 0.0 2.0 0.00 0.00 0.00 41 1015.1
20260504171043 73 330 0.0 2.0 0.00 0.00 0.00 39 1015.1
20260504170544 72 0 0.0 2.0 0.00 0.00 0.00 38 1015.2
20260504151042 67 0 0.0 1.0 0.00 0.00 0.00 52 1015.8
20260504150540 66 242 0.0 1.0 0.00 0.00 0.00 56 1015.9
20260504141043 62 0 0.0 1.0 0.00 0.00 0.00 67 1016.3
20260504140547 61 0 0.0 1.0 0.00 0.00 0.00 68 1016.2
20260504130544 57 0 0.0 1.0 0.00 0.00 0.00 77 1016.5
20260504110543 46 0 0.0 0.0 0.00 0.00 0.00 87 1016.6
20260504100544 46 0 0.0 0.0 0.00 0.00 0.00 85 1016.1
20260504081550 47 0 0.0 0.0 0.00 0.00 0.00 79 1016.3
20260504081043 47 0 0.0 0.0 0.00 0.00 0.00 79 1016.3
20260504080546 47 0 0.0 0.0 0.00 0.00 0.00 79 1016.3
20260504050543 48 0 0.0 0.0 0.00 0.00 0.00 74 1016.4
20260504050106 48 0 0.0 0.0 0.00 0.00 0.00 74 1016.4
20260504045543 48 0 0.0 0.0 0.00 0.00 0.00 74 1016.4
20260504045043 48 0 0.0 0.0 0.00 0.00 0.00 74 1016.4
20260504044554 48 0 0.0 0.0 0.00 0.00 0.00 74 1016.4
20260504044043 48 0 0.0 0.0 0.00 0.00 0.00 73 1016.5
20260504043543 48 0 0.0 0.0 0.00 0.00 0.00 73 1016.6
20260504043058 48 0 0.0 0.0 0.00 0.00 0.00 73 1016.6
20260504042543 48 0 0.0 0.0 0.00 0.00 0.00 72 1016.6
20260504042043 48 0 0.0 0.0 0.00 0.00 0.00 72 1016.6
20260504041556 48 0 0.0 0.0 0.00 0.00 0.00 72 1016.6
20260504041042 49 0 0.0 0.0 0.00 0.00 0.00 71 1016.5
20260504040542 49 0 0.0 0.0 0.00 0.00 0.00 71 1016.5
20260504035543 49 0 0.0 0.0 0.00 0.00 0.00 71 1016.6
20260504035044 49 0 0.0 0.0 0.00 0.00 0.00 71 1016.6
20260504034559 49 0 0.0 0.0 0.00 0.00 0.00 70 1016.6
20260504034048 49 0 0.0 0.0 0.00 0.00 0.00 70 1016.6
20260504033543 49 0 0.0 0.0 0.00 0.00 0.00 69 1016.6
20260504033057 49 0 0.0 0.0 0.00 0.00 0.00 69 1016.5
20260504032543 49 0 0.0 0.0 0.00 0.00 0.00 68 1016.5
20260504032043 50 0 0.0 0.0 0.00 0.00 0.00 68 1016.5
20260504031552 50 0 0.0 0.0 0.00 0.00 0.00 68 1016.5
20260504031043 50 0 0.0 0.0 0.00 0.00 0.00 68 1016.5
20260504030542 50 0 0.0 0.0 0.00 0.00 0.00 68 1016.4
20260504030053 50 0 0.0 0.0 0.00 0.00 0.00 68 1016.4
20260504025543 50 0 0.0 0.0 0.00 0.00 0.00 67 1016.4
20260504025043 50 0 0.0 0.0 0.00 0.00 0.00 67 1016.4
20260504024554 50 0 0.0 0.0 0.00 0.00 0.00 67 1016.4
20260504024043 50 0 0.0 0.0 0.00 0.00 0.00 67 1016.4
20260504023543 50 0 0.0 0.0 0.00 0.00 0.00 66 1016.4
20260504023050 50 0 0.0 0.0 0.00 0.00 0.00 66 1016.4
20260504022544 50 0 0.0 0.0 0.00 0.00 0.00 65 1016.5
20260504022042 50 0 0.0 0.0 0.00 0.00 0.00 65 1016.5
20260504021553 50 0 0.0 0.0 0.00 0.00 0.00 64 1016.4
20260504021044 51 0 0.0 0.0 0.00 0.00 0.00 63 1016.4
20260504020545 51 0 0.0 0.0 0.00 0.00 0.00 64 1016.4
20260504020053 51 0 0.0 0.0 0.00 0.00 0.00 64 1016.4
20260504015544 51 0 0.0 0.0 0.00 0.00 0.00 64 1016.4
20260504015044 51 0 0.0 0.0 0.00 0.00 0.00 62 1016.4
20260504014553 52 0 0.0 0.0 0.00 0.00 0.00 61 1016.4
20260504014044 52 0 0.0 0.0 0.00 0.00 0.00 60 1016.4
20260504013543 52 0 0.0 0.0 0.00 0.00 0.00 60 1016.3
20260504013111 53 0 0.0 0.0 0.00 0.00 0.00 59 1016.2
20260504012543 53 0 0.0 0.0 0.00 0.00 0.00 58 1016.1
20260504012046 53 0 0.0 0.0 0.00 0.00 0.00 57 1016.1
20260504011549 53 0 0.0 0.0 0.00 0.00 0.00 56 1016.0
20260504011042 54 0 0.0 0.0 0.00 0.00 0.00 55 1015.9
20260504010542 54 0 0.0 0.0 0.00 0.00 0.00 53 1015.9
20260504010101 54 0 0.0 0.0 0.00 0.00 0.00 53 1015.8
20260504005546 55 0 0.0 0.0 0.00 0.00 0.00 53 1015.8
20260504005043 55 0 0.0 0.0 0.00 0.00 0.00 52 1015.8
20260504004552 55 0 0.0 0.0 0.00 0.00 0.00 50 1015.7
20260504004043 56 0 0.0 0.0 0.00 0.00 0.00 50 1015.7
20260504003544 56 0 0.0 0.0 0.00 0.00 0.00 49 1015.7
20260504003049 57 0 0.0 0.0 0.00 0.00 0.00 48 1015.6
20260504002545 57 0 0.0 0.0 0.00 0.00 0.00 48 1015.6
20260504002043 57 0 0.0 0.0 0.00 0.00 0.00 48 1015.6
20260504001549 58 0 0.0 0.0 0.00 0.00 0.00 48 1015.5
20260504001045 58 0 0.0 0.0 0.00 0.00 0.00 46 1015.5
20260504000543 59 0 0.0 0.0 0.00 0.00 0.00 45 1015.4
20260504000106 59 0 0.0 0.0 0.00 0.00 0.00 46 1015.3
20260503235545 60 0 0.0 0.0 0.00 0.00 0.00 45 1015.2
20260503235043 60 0 0.0 0.0 0.00 0.00 0.00 43 1015.3
20260503234548 61 0 0.0 0.0 0.00 0.00 0.00 42 1015.2
20260503234043 61 0 0.0 0.0 0.00 0.00 0.00 42 1015.3
20260503233544 62 0 0.0 0.0 0.00 0.00 0.00 41 1015.1
20260503233052 62 0 0.0 0.0 0.00 0.00 0.00 39 1015.2
20260503232543 63 0 0.0 1.0 0.00 0.00 0.00 39 1015.1
20260503232043 63 0 0.0 1.0 0.00 0.00 0.00 37 1015.2
20260503231552 63 0 0.0 0.0 0.00 0.00 0.00 36 1015.2
20260503231044 63 0 0.0 0.0 0.00 0.00 0.00 35 1015.1
20260503230544 64 0 0.0 0.0 0.00 0.00 0.00 35 1015.2
20260503230053 64 0 0.0 1.0 0.00 0.00 0.00 35 1015.2
20260503225543 64 0 0.0 1.0 0.00 0.00 0.00 33 1015.1
20260503225045 64 0 0.0 1.0 0.00 0.00 0.00 32 1015.1
20260503224559 64 0 0.0 1.0 0.00 0.00 0.00 35 1015.0
20260503224043 64 0 0.0 1.0 0.00 0.00 0.00 33 1015.1
20260503223609 65 0 0.0 1.0 0.00 0.00 0.00 32 1015.1
20260503223055 65 0 0.0 1.0 0.00 0.00 0.00 32 1015.2
20260503222544 65 293 0.0 1.0 0.00 0.00 0.00 33 1015.2
20260503222043 65 0 0.0 1.0 0.00 0.00 0.00 31 1015.1
20260503221601 65 0 0.0 1.0 0.00 0.00 0.00 31 1015.1
20260503221046 65 0 0.0 1.0 0.00 0.00 0.00 32 1015.1
20260503220543 65 0 0.0 1.0 0.00 0.00 0.00 32 1015.1
20260503220054 65 0 0.0 1.0 0.00 0.00 0.00 33 1015.1
20260503215543 65 0 0.0 1.0 0.00 0.00 0.00 33 1015.1
20260503215042 66 0 0.0 1.0 0.00 0.00 0.00 34 1015.2
20260503214553 66 0 0.0 1.0 0.00 0.00 0.00 32 1015.2
20260503214043 66 239 0.0 1.0 0.00 0.00 0.00 32 1015.2
20260503213543 66 0 0.0 1.0 0.00 0.00 0.00 31 1015.3
20260503213053 66 0 0.0 1.0 0.00 0.00 0.00 30 1015.3
20260503212544 66 278 0.0 2.0 0.00 0.00 0.00 30 1015.3
20260503212043 67 271 0.0 2.0 0.00 0.00 0.00 31 1015.4
20260503211552 67 0 0.0 1.0 0.00 0.00 0.00 29 1015.3
20260503211044 68 223 0.0 1.0 0.00 0.00 0.00 29 1015.3
20260503210544 68 0 0.0 2.0 0.00 0.00 0.00 28 1015.4
20260503210051 68 0 0.0 2.0 0.00 0.00 0.00 29 1015.4
20260503205543 69 0 0.0 2.0 0.00 0.00 0.00 30 1015.4
20260503205042 69 0 0.0 2.0 0.00 0.00 0.00 28 1015.5
20260503204611 69 259 0.0 2.0 0.00 0.00 0.00 29 1015.5
20260503204044 68 0 0.0 2.0 0.00 0.00 0.00 30 1015.5
20260503203543 68 220 0.0 2.0 0.00 0.00 0.00 29 1015.5
20260503203100 67 238 0.0 2.0 0.00 0.00 0.00 31 1015.6
20260503202547 68 234 0.0 1.0 0.00 0.00 0.00 30 1015.6
20260503202044 68 229 0.0 1.0 0.00 0.00 0.00 31 1015.6
20260503201554 69 0 0.0 2.0 0.00 0.00 0.00 28 1015.7
20260503201043 68 0 0.0 2.0 0.00 0.00 0.00 31 1015.7
20260503200543 68 0 0.0 2.0 0.00 0.00 0.00 29 1015.8
20260503200053 67 0 0.0 3.0 0.00 0.00 0.00 30 1015.9
20260503195544 67 0 0.0 3.0 0.00 0.00 0.00 30 1016.0
20260503195043 67 0 0.0 2.0 0.00 0.00 0.00 30 1016.0
20260503194550 67 0 0.0 2.0 0.00 0.00 0.00 32 1016.1
20260503194043 66 292 0.0 2.0 0.00 0.00 0.00 32 1016.1
20260503193543 66 220 0.0 2.0 0.00 0.00 0.00 32 1016.2
20260503193125 66 342 0.0 1.0 0.00 0.00 0.00 33 1016.3
20260503192544 65 0 0.0 1.0 0.00 0.00 0.00 33 1016.3
20260503192044 65 0 0.0 2.0 0.00 0.00 0.00 32 1016.4
20260503191611 65 0 0.0 2.0 0.00 0.00 0.00 34 1016.4
20260503191044 64 0 0.0 1.0 0.00 0.00 0.00 33 1016.4